ABS181 FOOL-FOOG

Flight info

Callsign ABS181
Flight time 0h 25m
Altitude 8000
Route TEMKI2N TEMKI DCT EPUBU
Aircraft AT46/M-SDFGIRY/S

Departure

Time 2026-04-16 13:22
Airport Libreville Leon M'ba International Airport (FOOL)

Arrival

Time 2026-04-16 13:47
Airport Port Gentil International Airport (FOOG)
Time Latitude Longitude Altitude Speed Heading
2026-04-16 13:02 0.46037 9.40936 34 ft 0 kts 234°
2026-04-16 13:14 0.46044 9.40946 34 ft 4 kts 235°
2026-04-16 13:14 0.46056 9.40966 34 ft 1 kts 254°
2026-04-16 13:14 0.46105 9.40966 34 ft 22 kts 56°
2026-04-16 13:14 0.46133 9.41017 34 ft 3 kts 62°
2026-04-16 13:15 0.46116 9.40986 34 ft 4 kts 62°
2026-04-16 13:15 0.46141 9.41075 34 ft 14 kts 120°
2026-04-16 13:15 0.46073 9.41129 33 ft 12 kts 154°
2026-04-16 13:15 0.45998 9.41166 33 ft 11 kts 155°
2026-04-16 13:16 0.45930 9.41199 33 ft 11 kts 153°
2026-04-16 13:16 0.45867 9.41229 33 ft 10 kts 155°
2026-04-16 13:16 0.45806 9.41257 33 ft 9 kts 153°
2026-04-16 13:16 0.45747 9.41289 33 ft 10 kts 151°
2026-04-16 13:17 0.45686 9.41322 33 ft 10 kts 151°
2026-04-16 13:17 0.45629 9.41345 33 ft 8 kts 162°
2026-04-16 13:17 0.45574 9.41364 33 ft 8 kts 159°
2026-04-16 13:17 0.45520 9.41386 34 ft 8 kts 150°
2026-04-16 13:18 0.45408 9.41451 34 ft 29 kts 151°
2026-04-16 13:18 0.45182 9.41555 35 ft 42 kts 154°
2026-04-16 13:18 0.45015 9.41638 34 ft 21 kts 153°
2026-04-16 13:18 0.44905 9.41693 35 ft 16 kts 153°
2026-04-16 13:19 0.44827 9.41744 35 ft 1 kts 142°
2026-04-16 13:19 0.44806 9.41727 35 ft 1 kts 277°
2026-04-16 13:19 0.44808 9.41726 35 ft 2 kts 323°
2026-04-16 13:19 0.44837 9.41723 35 ft 0 kts 340°
2026-04-16 13:20 0.44839 9.41722 35 ft 0 kts 333°
2026-04-16 13:21 0.44927 9.41681 35 ft 43 kts 335°
2026-04-16 13:21 0.45414 9.41448 34 ft 110 kts 335°
2026-04-16 13:21 0.46223 9.41047 291 ft 135 kts 332°
2026-04-16 13:22 0.47022 9.40608 923 ft 140 kts 332°
2026-04-16 13:22 0.47885 9.40139 1360 ft 146 kts 332°
2026-04-16 13:22 0.48832 9.39614 1640 ft 162 kts 330°
2026-04-16 13:22 0.49802 9.39042 2152 ft 164 kts 328°
2026-04-16 13:23 0.50520 9.38167 2596 ft 170 kts 282°
2026-04-16 13:23 0.50292 9.37039 3023 ft 169 kts 239°
2026-04-16 13:23 0.49452 9.36190 3414 ft 172 kts 211°
2026-04-16 13:23 0.48412 9.35611 3864 ft 173 kts 207°
2026-04-16 13:24 0.47303 9.35080 4240 ft 178 kts 201°
2026-04-16 13:24 0.46154 9.34602 4669 ft 180 kts 203°
2026-04-16 13:24 0.45011 9.34089 5135 ft 180 kts 204°
2026-04-16 13:24 0.43878 9.33561 5574 ft 179 kts 204°
2026-04-16 13:25 0.42745 9.33034 5997 ft 179 kts 204°
2026-04-16 13:25 0.41630 9.32519 6401 ft 180 kts 203°
2026-04-16 13:25 0.40475 9.31982 6793 ft 181 kts 204°
2026-04-16 13:25 0.39341 9.31455 7170 ft 183 kts 204°
2026-04-16 13:26 0.38180 9.30916 7546 ft 184 kts 204°
2026-04-16 13:26 0.37026 9.30380 7912 ft 185 kts 204°
2026-04-16 13:26 0.35836 9.29828 8277 ft 186 kts 203°
2026-04-16 13:26 0.34653 9.29279 8604 ft 189 kts 203°
2026-04-16 13:27 0.33411 9.28702 8718 ft 204 kts 204°
2026-04-16 13:27 0.32082 9.28083 8769 ft 219 kts 204°
2026-04-16 13:27 0.30646 9.27414 8789 ft 233 kts 204°
2026-04-16 13:27 0.29137 9.26712 8798 ft 245 kts 204°
2026-04-16 13:28 0.27583 9.25991 8802 ft 253 kts 204°
2026-04-16 13:28 0.25962 9.25241 8803 ft 259 kts 204°
2026-04-16 13:28 0.24301 9.24470 8802 ft 264 kts 204°
2026-04-16 13:28 0.22639 9.23699 8801 ft 267 kts 204°
2026-04-16 13:29 0.20944 9.22913 8802 ft 269 kts 204°
2026-04-16 13:29 0.19239 9.22121 8802 ft 271 kts 204°
2026-04-16 13:29 0.17519 9.21322 8803 ft 272 kts 204°
2026-04-16 13:29 0.15805 9.20525 8804 ft 273 kts 204°
2026-04-16 13:30 0.14074 9.19720 8804 ft 274 kts 204°
2026-04-16 13:30 0.12339 9.18914 8803 ft 275 kts 204°
2026-04-16 13:30 0.10631 9.18121 8802 ft 275 kts 204°
2026-04-16 13:30 0.08890 9.17313 8802 ft 275 kts 204°
2026-04-16 13:31 0.07150 9.16504 8803 ft 275 kts 204°
2026-04-16 13:31 0.05420 9.15700 8802 ft 275 kts 204°
2026-04-16 13:31 0.03682 9.14892 8802 ft 275 kts 204°
2026-04-16 13:31 0.01968 9.14096 8802 ft 274 kts 204°
2026-04-16 13:32 0.00235 9.13288 8803 ft 274 kts 204°
2026-04-16 13:32 -0.01488 9.12484 8804 ft 274 kts 204°
2026-04-16 13:32 -0.03230 9.11675 8804 ft 275 kts 204°
2026-04-16 13:32 -0.04965 9.10872 8804 ft 275 kts 204°
2026-04-16 13:33 -0.06699 9.10065 8804 ft 275 kts 204°
2026-04-16 13:33 -0.08435 9.09259 8804 ft 275 kts 204°
2026-04-16 13:33 -0.10167 9.08456 8804 ft 275 kts 204°
2026-04-16 13:33 -0.11910 9.07648 8804 ft 275 kts 204°
2026-04-16 13:34 -0.13648 9.06841 8804 ft 275 kts 204°
2026-04-16 13:34 -0.15331 9.05989 8804 ft 275 kts 210°
2026-04-16 13:34 -0.16950 9.04950 8805 ft 276 kts 212°
2026-04-16 13:34 -0.18551 9.03884 8805 ft 277 kts 212°
2026-04-16 13:35 -0.20172 9.02842 8804 ft 277 kts 211°
2026-04-16 13:35 -0.21816 9.01837 8804 ft 276 kts 210°
2026-04-16 13:35 -0.23443 9.00843 8795 ft 271 kts 210°
2026-04-16 13:35 -0.25006 8.99888 8558 ft 263 kts 210°
2026-04-16 13:36 -0.26493 8.98977 8200 ft 239 kts 210°
2026-04-16 13:36 -0.27862 8.98144 7862 ft 221 kts 210°
2026-04-16 13:36 -0.29134 8.97364 7510 ft 209 kts 210°
2026-04-16 13:36 -0.30390 8.96591 7176 ft 215 kts 210°
2026-04-16 13:37 -0.31675 8.95808 6850 ft 217 kts 210°
2026-04-16 13:37 -0.32969 8.95024 6543 ft 219 kts 210°
2026-04-16 13:37 -0.34255 8.94239 6248 ft 218 kts 211°
2026-04-16 13:37 -0.35505 8.93475 5935 ft 204 kts 210°
2026-04-16 13:38 -0.36705 8.92740 5588 ft 196 kts 210°
2026-04-16 13:38 -0.37860 8.92036 5236 ft 199 kts 210°
2026-04-16 13:38 -0.39063 8.91304 4905 ft 204 kts 211°
2026-04-16 13:38 -0.40274 8.90561 4598 ft 201 kts 211°
2026-04-16 13:39 -0.41439 8.89847 4265 ft 193 kts 211°
2026-04-16 13:39 -0.42577 8.89153 3918 ft 193 kts 211°
2026-04-16 13:39 -0.43741 8.88440 3590 ft 198 kts 211°
2026-04-16 13:39 -0.44486 8.87982 3392 ft 195 kts 211°
2026-04-16 13:40 -0.45625 8.87290 3061 ft 189 kts 211°
2026-04-16 13:40 -0.46728 8.86626 2727 ft 185 kts 211°
2026-04-16 13:40 -0.47782 8.85996 2600 ft 171 kts 211°
2026-04-16 13:40 -0.48790 8.85388 2467 ft 167 kts 211°
2026-04-16 13:41 -0.49778 8.84787 2325 ft 165 kts 211°
2026-04-16 13:41 -0.50758 8.84190 2167 ft 164 kts 211°
2026-04-16 13:41 -0.51725 8.83597 2073 ft 160 kts 211°
2026-04-16 13:41 -0.52656 8.83058 2029 ft 154 kts 208°
2026-04-16 13:42 -0.53603 8.82595 2009 ft 149 kts 203°
2026-04-16 13:42 -0.54551 8.82211 1999 ft 145 kts 200°
2026-04-16 13:42 -0.55497 8.81854 1997 ft 146 kts 200°
2026-04-16 13:42 -0.56462 8.81486 1998 ft 150 kts 201°
2026-04-16 13:43 -0.57429 8.81098 1996 ft 151 kts 202°
2026-04-16 13:43 -0.58381 8.80696 1992 ft 146 kts 202°
2026-04-16 13:43 -0.59292 8.80309 1998 ft 138 kts 202°
2026-04-16 13:43 -0.60157 8.79951 1999 ft 128 kts 202°
2026-04-16 13:44 -0.60962 8.79627 1969 ft 126 kts 201°
2026-04-16 13:44 -0.61791 8.79291 1794 ft 130 kts 202°
2026-04-16 13:44 -0.62633 8.78944 1623 ft 132 kts 202°
2026-04-16 13:44 -0.63483 8.78594 1447 ft 130 kts 202°
2026-04-16 13:45 -0.64313 8.78252 1269 ft 128 kts 202°
2026-04-16 13:45 -0.65131 8.77919 1092 ft 127 kts 201°
2026-04-16 13:45 -0.65933 8.77592 922 ft 125 kts 202°
2026-04-16 13:45 -0.66737 8.77262 746 ft 124 kts 201°
2026-04-16 13:46 -0.67532 8.76954 595 ft 122 kts 201°
2026-04-16 13:46 -0.68308 8.76632 467 ft 119 kts 202°
2026-04-16 13:46 -0.69081 8.76297 303 ft 121 kts 202°
2026-04-16 13:46 -0.69856 8.75975 158 ft 120 kts 202°
2026-04-16 13:47 -0.70618 8.75667 49 ft 116 kts 201°
2026-04-16 13:47 -0.71328 8.75387 26 ft 102 kts 205°
2026-04-16 13:47 -0.71815 8.75182 28 ft 30 kts 206°
2026-04-16 13:47 -0.71917 8.75144 27 ft 5 kts 147°
2026-04-16 13:48 -0.71936 8.75177 28 ft 6 kts 110°
2026-04-16 13:48 -0.71947 8.75208 29 ft 4 kts 108°
2026-04-16 13:48 -0.71954 8.75228 30 ft 1 kts 119°
2026-04-16 13:48 -0.71969 8.75263 31 ft 11 kts 109°
2026-04-16 13:49 -0.71993 8.75272 31 ft 12 kts 229°
2026-04-16 13:49 -0.72033 8.75269 32 ft 6 kts 96°
2026-04-16 13:49 -0.72028 8.75288 32 ft 0 kts 67°
2026-04-16 14:08 -0.72021 8.75294 32 ft 5 kts 25°
2026-04-16 14:08 -0.71951 8.75294 32 ft 11 kts 359°
2026-04-16 14:08 -0.71875 8.75294 31 ft 11 kts 360°
2026-04-16 14:08 -0.71805 8.75289 31 ft 9 kts 346°
2026-04-16 14:09 -0.71759 8.75246 28 ft 10 kts 302°
2026-04-16 14:09 -0.71723 8.75234 28 ft 1 kts 31°
2026-04-16 14:09 -0.71659 8.75244 27 ft 23 kts 13°
2026-04-16 14:09 -0.71530 8.75292 25 ft 18 kts 22°
2026-04-16 14:10 -0.71428 8.75335 25 ft 14 kts 23°
2026-04-16 14:10 -0.71344 8.75371 28 ft 12 kts 23°
2026-04-16 14:10 -0.71266 8.75401 25 ft 12 kts 21°
2026-04-16 14:10 -0.71189 8.75431 23 ft 13 kts 21°
2026-04-16 14:11 -0.71075 8.75476 25 ft 22 kts 22°
2026-04-16 14:11 -0.70916 8.75543 25 ft 28 kts 24°
2026-04-16 14:11 -0.70723 8.75625 27 ft 32 kts 19°
2026-04-16 14:11 -0.70580 8.75677 24 ft 12 kts 21°
2026-04-16 14:12 -0.70468 8.75726 26 ft 16 kts 42°
2026-04-16 14:12 -0.70416 8.75767 23 ft 3 kts 326°
2026-04-16 14:12 -0.70434 8.75734 25 ft 10 kts 197°
2026-04-16 14:12 -0.70474 8.75721 23 ft 0 kts 201°
2026-04-16 14:13 -0.70476 8.75720 23 ft 6 kts 201°
2026-04-16 14:14 -0.70745 8.75611 24 ft 77 kts 202°
2026-04-16 14:14 -0.71447 8.75333 51 ft 132 kts 199°
2026-04-16 14:14 -0.72375 8.74986 423 ft 154 kts 198°
2026-04-16 14:14 -0.73380 8.74644 1101 ft 154 kts 198°
2026-04-16 14:15 -0.74468 8.74272 1442 ft 169 kts 199°
2026-04-16 14:15 -0.75579 8.73915 1934 ft 171 kts 185°
2026-04-16 14:15 -0.76659 8.74288 2412 ft 169 kts 133°
2026-04-16 14:15 -0.77343 8.75238 2816 ft 171 kts 125°
2026-04-16 14:16 -0.78055 8.76199 3283 ft 172 kts 127°
2026-04-16 14:16 -0.78808 8.77129 3768 ft 174 kts 131°
2026-04-16 14:16 -0.79627 8.78020 4253 ft 174 kts 135°
2026-04-16 14:16 -0.80513 8.78856 4710 ft 175 kts 139°
2026-04-16 14:17 -0.81443 8.79632 5176 ft 175 kts 141°
2026-04-16 14:17 -0.82404 8.80394 5624 ft 176 kts 141°
2026-04-16 14:17 -0.83349 8.81145 6037 ft 176 kts 141°
2026-04-16 14:17 -0.84310 8.81915 6445 ft 178 kts 141°
2026-04-16 14:18 -0.85281 8.82688 6849 ft 179 kts 141°
2026-04-16 14:18 -0.86265 8.83460 7258 ft 180 kts 141°
2026-04-16 14:18 -0.87258 8.84230 7664 ft 181 kts 141°
2026-04-16 14:18 -0.88251 8.85015 8048 ft 183 kts 140°
2026-04-16 14:19 -0.89241 8.85805 8428 ft 184 kts 140°
2026-04-16 14:19 -0.90251 8.86613 8807 ft 185 kts 140°
2026-04-16 14:19 -0.91240 8.87408 9154 ft 186 kts 140°
2026-04-16 14:19 -0.92257 8.88224 9508 ft 188 kts 140°
2026-04-16 14:20 -0.93276 8.89036 9870 ft 188 kts 139°
2026-04-16 14:20 -0.94300 8.89867 10212 ft 189 kts 139°
2026-04-16 14:20 -0.95326 8.90700 10572 ft 190 kts 139°
2026-04-16 14:20 -0.96358 8.91527 10922 ft 191 kts 139°
2026-04-16 14:21 -0.97405 8.92361 11258 ft 193 kts 139°
2026-04-16 14:21 -0.98456 8.93200 11598 ft 194 kts 138°
2026-04-16 14:21 -0.99503 8.94052 11928 ft 195 kts 137°
2026-04-16 14:21 -1.00549 8.94914 12252 ft 196 kts 137°
2026-04-16 14:22 -1.01604 8.95763 12579 ft 196 kts 138°
2026-04-16 14:22 -1.02678 8.96620 12886 ft 199 kts 139°
2026-04-16 14:22 -1.03771 8.97482 13233 ft 198 kts 136°
2026-04-16 14:22 -1.04823 8.98359 13503 ft 198 kts 135°
2026-04-16 14:23 -1.05890 8.99246 13750 ft 199 kts 136°
2026-04-16 14:23 -1.06970 9.00107 14001 ft 200 kts 137°
2026-04-16 14:23 -1.08072 9.00971 14268 ft 201 kts 137°
2026-04-16 14:23 -1.09174 9.01839 14498 ft 202 kts 137°
2026-04-16 14:24 -1.10283 9.02718 14672 ft 208 kts 137°
2026-04-16 14:24 -1.11437 9.03653 14753 ft 217 kts 137°
2026-04-16 14:24 -1.12624 9.04619 14768 ft 228 kts 137°
2026-04-16 14:24 -1.13890 9.05623 14773 ft 237 kts 137°
2026-04-16 14:25 -1.15208 9.06675 14778 ft 244 kts 137°
2026-04-16 14:25 -1.16531 9.07745 14782 ft 247 kts 137°
2026-04-16 14:25 -1.17889 9.08837 14788 ft 251 kts 137°
2026-04-16 14:25 -1.19237 9.09924 14787 ft 253 kts 137°
2026-04-16 14:26 -1.20610 9.11020 14789 ft 254 kts 138°
2026-04-16 14:26 -1.21991 9.12129 14794 ft 254 kts 137°
2026-04-16 14:26 -1.23369 9.13243 14785 ft 253 kts 137°
2026-04-16 14:26 -1.24755 9.14345 14795 ft 255 kts 137°
2026-04-16 14:27 -1.26144 9.15454 14785 ft 255 kts 139°
2026-04-16 14:27 -1.27706 9.16331 14792 ft 261 kts 152°
2026-04-16 14:27 -1.29378 9.17057 14799 ft 263 kts 153°
2026-04-16 14:27 -1.31059 9.17806 14800 ft 264 kts 152°
2026-04-16 14:28 -1.32715 9.18564 14799 ft 268 kts 151°
2026-04-16 14:28 -1.34422 9.19366 14799 ft 269 kts 151°
2026-04-16 14:28 -1.36123 9.20185 14796 ft 268 kts 150°
2026-04-16 14:28 -1.37765 9.21006 14790 ft 268 kts 150°
2026-04-16 14:29 -1.39450 9.21831 14791 ft 270 kts 150°
2026-04-16 14:29 -1.41133 9.22653 14793 ft 269 kts 150°
2026-04-16 14:29 -1.42820 9.23479 14799 ft 269 kts 150°
2026-04-16 14:29 -1.44514 9.24303 14794 ft 270 kts 150°
2026-04-16 14:30 -1.46200 9.25128 14791 ft 270 kts 150°
2026-04-16 14:30 -1.47898 9.25948 14793 ft 272 kts 150°
2026-04-16 14:30 -1.49601 9.26781 14795 ft 274 kts 150°
2026-04-16 14:30 -1.51288 9.27604 14799 ft 270 kts 149°
2026-04-16 14:31 -1.52943 9.28411 14799 ft 270 kts 150°
2026-04-16 14:31 -1.54642 9.29245 14794 ft 268 kts 150°
2026-04-16 14:31 -1.56331 9.30065 14792 ft 269 kts 150°
2026-04-16 14:31 -1.58028 9.30886 14789 ft 271 kts 150°
2026-04-16 14:32 -1.59717 9.31714 14798 ft 271 kts 150°
2026-04-16 14:32 -1.61386 9.32528 14795 ft 270 kts 150°
2026-04-16 14:32 -1.63085 9.33356 14794 ft 270 kts 150°
2026-04-16 14:32 -1.64772 9.34180 14792 ft 269 kts 150°
2026-04-16 14:33 -1.66462 9.35004 14794 ft 269 kts 150°
2026-04-16 14:33 -1.68140 9.35821 14798 ft 269 kts 150°
2026-04-16 14:33 -1.69812 9.36636 14795 ft 269 kts 150°
2026-04-16 14:33 -1.71492 9.37455 14793 ft 269 kts 150°
2026-04-16 14:34 -1.73187 9.38282 14795 ft 269 kts 150°
2026-04-16 14:34 -1.74873 9.39105 14794 ft 269 kts 150°
2026-04-16 14:34 -1.76562 9.39928 14795 ft 269 kts 150°
2026-04-16 14:34 -1.78223 9.40737 14797 ft 269 kts 150°
2026-04-16 14:35 -1.79922 9.41568 14794 ft 271 kts 150°
2026-04-16 14:35 -1.81613 9.42393 14796 ft 270 kts 150°
2026-04-16 14:35 -1.83301 9.43218 14805 ft 271 kts 150°
2026-04-16 14:35 -1.85001 9.44045 14803 ft 271 kts 150°
2026-04-16 14:36 -1.86695 9.44872 14799 ft 272 kts 150°
2026-04-16 14:36 -1.88391 9.45700 14802 ft 271 kts 150°
2026-04-16 14:36 -1.90070 9.46518 14807 ft 271 kts 150°
2026-04-16 14:36 -1.91784 9.47355 14804 ft 270 kts 150°
2026-04-16 14:37 -1.93450 9.48170 14803 ft 270 kts 150°
2026-04-16 14:37 -1.95140 9.48993 14802 ft 270 kts 150°
2026-04-16 14:37 -1.96833 9.49815 14803 ft 270 kts 150°
2026-04-16 14:37 -1.98523 9.50642 14804 ft 270 kts 150°
2026-04-16 14:38 -2.00216 9.51468 14810 ft 270 kts 150°
2026-04-16 14:38 -2.01899 9.52291 14807 ft 270 kts 150°
2026-04-16 14:38 -2.03568 9.53105 14802 ft 270 kts 150°
2026-04-16 14:38 -2.05255 9.53928 14799 ft 270 kts 150°
2026-04-16 14:39 -2.06947 9.54751 14804 ft 270 kts 150°
2026-04-16 14:39 -2.08630 9.55575 14806 ft 270 kts 150°
2026-04-16 14:39 -2.09755 9.56122 14805 ft 270 kts 150°
2026-04-16 14:39 -2.11994 9.57214 14808 ft 270 kts 150°
2026-04-16 14:40 -2.13128 9.57766 14812 ft 270 kts 150°
2026-04-16 14:40 -2.14800 9.58583 14806 ft 271 kts 150°
2026-04-16 14:40 -2.16520 9.59425 14727 ft 275 kts 150°
2026-04-16 14:40 -2.18255 9.60273 14682 ft 276 kts 150°
2026-04-16 14:41 -2.19959 9.61105 14569 ft 277 kts 150°
2026-04-16 14:41 -2.21718 9.61964 14270 ft 286 kts 150°
2026-04-16 14:41 -2.23545 9.62856 13829 ft 296 kts 150°
2026-04-16 14:41 -2.25410 9.63766 13390 ft 299 kts 150°
2026-04-16 14:42 -2.27273 9.64676 12951 ft 300 kts 150°
2026-04-16 14:42 -2.29156 9.65596 12489 ft 300 kts 150°
2026-04-16 14:42 -2.31038 9.66516 12036 ft 299 kts 150°
2026-04-16 14:42 -2.32872 9.67412 11599 ft 297 kts 151°
2026-04-16 14:43 -2.34724 9.68314 11159 ft 294 kts 151°
2026-04-16 14:43 -2.36562 9.69213 10720 ft 292 kts 151°
2026-04-16 14:43 -2.38377 9.70100 10282 ft 289 kts 151°
2026-04-16 14:43 -2.40183 9.70980 9858 ft 286 kts 150°
2026-04-16 14:44 -2.41984 9.71858 9431 ft 283 kts 150°
2026-04-16 14:44 -2.43331 9.72516 9110 ft 281 kts 151°
2026-04-16 14:44 -2.45087 9.73374 8695 ft 279 kts 151°
2026-04-16 14:44 -2.46843 9.74231 8276 ft 277 kts 150°
2026-04-16 14:45 -2.48570 9.75076 7864 ft 275 kts 151°
2026-04-16 14:45 -2.50260 9.75898 7466 ft 273 kts 151°
2026-04-16 14:45 -2.51967 9.76733 7063 ft 270 kts 151°
2026-04-16 14:45 -2.53638 9.77568 6773 ft 266 kts 147°
2026-04-16 14:46 -2.55127 9.78639 6471 ft 262 kts 138°
2026-04-16 14:46 -2.56513 9.79807 6150 ft 261 kts 137°
2026-04-16 14:46 -2.57889 9.80982 5829 ft 260 kts 137°
2026-04-16 14:46 -2.59284 9.82135 5507 ft 260 kts 139°
2026-04-16 14:47 -2.60712 9.83261 5180 ft 260 kts 140°
2026-04-16 14:47 -2.62146 9.84360 4836 ft 260 kts 140°
2026-04-16 14:47 -2.63555 9.85450 4512 ft 258 kts 140°
2026-04-16 14:47 -2.64969 9.86557 4197 ft 256 kts 140°
2026-04-16 14:48 -2.66364 9.87656 3886 ft 255 kts 140°
2026-04-16 14:48 -2.67725 9.88723 3584 ft 241 kts 140°
2026-04-16 14:48 -2.69025 9.89733 3362 ft 230 kts 141°
2026-04-16 14:48 -2.70149 9.90809 3091 ft 220 kts 122°
2026-04-16 14:49 -2.70911 9.92121 2765 ft 215 kts 117°
2026-04-16 14:49 -2.71605 9.93407 2471 ft 211 kts 117°
2026-04-16 14:49 -2.72293 9.94641 2191 ft 194 kts 118°
2026-04-16 14:49 -2.72963 9.95751 1935 ft 179 kts 120°
2026-04-16 14:50 -2.73605 9.96766 1781 ft 164 kts 121°
2026-04-16 14:50 -2.74215 9.97683 1672 ft 154 kts 125°
2026-04-16 14:50 -2.74409 9.97930 1605 ft 154 kts 129°
2026-04-16 14:51 -2.74411 9.97933 1607 ft 154 kts 129°
2026-04-16 14:51 -2.75132 9.98775 1463 ft 159 kts 127°
2026-04-16 14:51 -2.75730 9.99692 1020 ft 158 kts 116°
2026-04-16 14:51 -2.76179 10.00653 869 ft 138 kts 115°
2026-04-16 14:53 -2.78852 10.05247 53 ft 24 kts 122°
2026-04-16 14:53 -2.78917 10.05317 53 ft 3 kts 195°
2026-04-16 14:54 -2.78933 10.05297 53 ft 4 kts 260°
2026-04-16 14:54 -2.78924 10.05272 54 ft 5 kts 295°
2026-04-16 14:54 -2.78907 10.05236 54 ft 7 kts 295°
2026-04-16 14:54 -2.78880 10.05196 54 ft 8 kts 304°
2026-04-16 14:55 -2.78848 10.05145 54 ft 9 kts 301°
2026-04-16 14:55 -2.78813 10.05087 54 ft 10 kts 302°
2026-04-16 14:55 -2.78772 10.05027 55 ft 11 kts 305°
2026-04-16 14:55 -2.78737 10.04969 55 ft 8 kts 301°
2026-04-16 14:56 -2.78711 10.04926 55 ft 7 kts 301°
2026-04-16 14:56 -2.78681 10.04879 55 ft 10 kts 301°
2026-04-16 14:56 -2.78641 10.04815 52 ft 12 kts 302°
2026-04-16 14:56 -2.78603 10.04765 55 ft 3 kts 343°
2026-04-16 14:57 -2.78598 10.04765 55 ft 0 kts 355°